Zurück zum Katalog

FASTSAT-HSV01

USA 220

AktivWissenschaftLEO
NORAD 37225·PAYLOAD·🇺🇸 United States

Gestartet Nov 20, 2010 von Kodiak Launch Complex

Loading…

Nächste Überflüge (nächste 24 Stunden)

TLE

AktuellSource: Space-Track

Epoche: Sep 14, 2026, 14:09 UTC

1 37225U 10062D   26257.59016881  .00000313  00000-0  46426-4 0  9991
2 37225  71.9733 320.8684 0018030 315.1321  44.8385 14.82213943127379

Verfolge FASTSAT-HSV01 in Echtzeit mit AllMySat

Download on the App Store